www.pogodaiklimat.ru

Погода и климат >> Архив погоды >> Россия >> Свердловская область >> Тугулым


ПОГОДА в Тугулыме

  • Прогноз погоды в Тугулыме
  • Монитор погоды в Тугулыме

АРХИВ ПОГОДЫ в Тугулыме

Время (UTC), дата Ветер
(напр.,м/с)
 
Видим.   Явления Облачность Т
(С)
Тd
(С)
f
(%)
Тe
(С)
Тes
(С)
Комфортность P
(гПа)
Po
(гПа)
Тmin
(С)
Tmax
(С)
R
(мм)
R24
(мм)
S
(см)
09 15.04 З 3 20 км ясно +3.9 -13.4 27 +1 +9 опасность
простуды
1017.9 1006.7
12 15.04 З 4 20 км ясно +5.4 -10.8 30 +2 +5 1015.1 1004.0
15 15.04 ЮЗ 3 20 км ясно +2.3 -12.6 32 -1 -1 1012.5 1001.3 +5.5
18 15.04 ЮЗ 3 10 км ясно +0.2 -11.5 41 -4 -4 1011.3 1000.0
21 15.04 ЮЗ 3 10 км ясно -0.7 -10.8 46 -5 -5 1008.7 997.3
00 16.04 ЮЗ 2 10 км в посл. час дождь со снегом 9/0
[Ci fib]
-1.3 -9.4 54 -5 -5 1007.3 996.0
03 16.04 З 4 20 км 10/0
[Cs]
+1.6 -4.5 64 -3 -2 1005.2 993.9 -1.8
06 16.04 З 5-11
{11}
20 км слаб. ливневой дождь н/о +2.8 -1.0 76 -2 -2 1004.4 993.3
09 16.04 З 2
{11}
20 км слаб. ливневой снег 10/10 600 м
[Cb cap]
+1.7 -0.8 83 -2 -2 1004.1 992.9
12 16.04 С 4
{10}
20 км {ливн. осадки} 10/6 600 м
[Cb cap Ac As]
+2.7 -7.8 46 -1 -1 1004.9 993.7
15 16.04 СВ 3
{10}
20 км 10/0
[Ac und]
-0.2 -5.6 67 -5 -5 1007.0 995.7 +4.3 0.0
18 16.04 С 5-10
{10}
10 км 9/8 1000 м
[Sc Ac trans]
-2.0 -10.8 51 -8 -8 1009.2 997.8
21 16.04 С 4-10
{10}
10 км 9/3 600 м
[Cb cap Ac cast Ci sp]
-4.2 -12.0 55 -10 -10 1011.9 1000.4
00 17.04 СЗ 5-10
{10}
10 км 9/3 600 м
[Cu med, cong Ac trans Ci sp]
-7.4 -15.1 54 -15 -15 1014.6 1002.9
03 17.04 С 5
{11}
20 км {ливн. осадки} 9/3 600 м
[Cu med, cong Ci fib]
-8.7 -15.9 56 -16 -15 1016.4 1004.6 -8.7 0.0
06 17.04 СЗ 5-11
{12}
20 км слаб. ливневой снег 9/9 600 м
[Cb cap]
-8.5 -13.2 69 -16 -16 1019.8 1008.0 -9.0
09 17.04 С 6-11
{14}
20 км слаб. ливневой снег 9/9 600 м
[Cb cap]
-5.6 -12.8 57 -13 -13 1020.0 1008.3
12 17.04 С 6-12
{14}
20 км {ливн. осадки} 4/4 600 м
[Cu med, cong]
-2.6 -17.2 32 -9 -8 1021.6 1010.0
15 17.04 С 4-10
{14}
20 км ясно -4.0 -16.6 37 -9 -9 1023.6 1011.9 -2.5 0.0
18 17.04 СЗ 2
{10}
10 км ясно -6.1 -15.3 48 -10 -10 1026.4 1014.7
21 17.04 СЗ 1 10 км ясно -8.8 -14.9 61 -11 -11 1026.3 1014.4
00 18.04 З 2 10 км ясно -9.6 -14.2 69 -14 -14 1027.9 1016.0
03 18.04 З 4 20 км ясно -4.0 -13.5 48 -10 -8 1026.9 1015.2 -9.8
06 18.04 З 5
{10}
20 км 1/0
[Ci fib]
+1.7 -14.8 28 -3 +2 1027.4 1016.0
09 18.04 З 5
{11}
20 км ясно +4.4 -13.6 26 +1 +6 1026.4 1015.0
12 18.04 СЗ 4
{10}
20 км ясно +5.1 -14.3 23 +2 +5 1027.3 1016.0
15 18.04 ЮЗ 2 20 км ясно +1.2 -10.4 42 -1 -1 1026.2 1014.7 +5.3
18 18.04 штиль 0 10 км 6/0
[Ci fib]
-3.8 -11.0 57 -4 -4 1026.7 1015.0
21 18.04 З 1 10 км ясно -4.8 -10.2 66 -7 -7 1026.1 1014.4
00 19.04 З 1 10 км ясно -6.6 -10.3 75 -9 -9 1026.5 1014.7
03 19.04 З 2 20 км ясно -1.0 -10.4 49 -4 -1 1024.3 1012.8 -7.6
06 19.04 З 3 20 км ясно +6.5 -12.6 24 +4 +13 опасность
простуды
1023.2 1012.0
09 19.04 СЗ 2 20 км ясно +8.2 -12.9 21 +7 +18 опасность
простуды
1020.6 1009.5
12 19.04 З 2 20 км ясно +9.1 -12.1 21 +8 +12 1020.3 1009.3
15 19.04 штиль 0 20 км ясно +4.0 -6.5 46 +4 +4 1019.0 1007.7 +9.1
18 19.04 З 2 10 км 9 баллов -0.7 -5.5 70 -4 -4 1019.4 1008.0
21 19.04 З 1 10 км 9/0
[Ci fib]
-0.6 -4.5 75 -2 -2 1018.6 1007.1
00 20.04 СЗ 2 20 км 9 баллов -1.1 -5.9 70 -5 -5 1019.4 1008.0
03 20.04 СЗ 3 20 км 9/9 600 м
[Sc]
+1.6 -4.8 62 -2 -2 1018.4 1007.0 -2.6
06 20.04 СЗ 3 20 км 9 баллов +4.1 -3.6 57 +1 +2 1019.2 1008.0
09 20.04 СЗ 4 20 км 9/8 600 м
[Cb cap Ci sp]
+6.5 -2.9 51 +3 +5 1018.9 1007.8
12 20.04 С 2 20 км 9 баллов +6.9 -3.9 46 +5 +6 1020.4 1009.3
15 20.04 З 2 20 км 9/9 1000 м
[Sc]
+4.3 -1.5 66 +2 +2 1020.2 1009.0 +7.6
18 20.04 СЗ 2 10 км 9 баллов +3.6 -2.4 65 +1 +1 1022.0 1010.7
21 20.04 З 1 10 км 9/9 1000 м
[Sc]
+0.9 -1.8 82 -1 -1 1022.0 1010.6
00 21.04 З 1 20 км 10 баллов +0.2 -2.0 85 -2 -2 1023.4 1012.0
03 21.04 З 2 20 км 9/9 1000 м
[Sc]
+3.1 -1.4 72 0 +1 1021.7 1010.4 +0.1
06 21.04 З 4 20 км 9 баллов +8.9 -1.5 48 +6 +7 1021.8 1010.7
09 21.04 СЗ 3 20 км {ливн. осадки} 9/9 600 м
[Cb cap]
+8.9 -4.9 37 +7 +8 1020.5 1009.4
12 21.04 З 4 20 км {ливн. осадки} 9/6 600 м
[Cu med, cong Ci fib]
+9.1 -4.1 39 +7 +8 1019.6 1008.5
15 21.04 З 2 20 км 9/5 600 м
[Cb cap Ac trans Ci fib]
+6.7 -2.8 51 +5 +5 1019.6 1008.4 +10.6 0.0
18 21.04 штиль 0 10 км 10 баллов +4.4 -1.6 65 +4 +4 1020.5 1009.3
21 21.04 штиль 0 10 км 10/0
[Ac As]
+4.3 -1.9 64 +4 +4 1019.3 1008.1
00 22.04 штиль 0 20 км 9 баллов +2.0 -2.0 75 +1 +1 1020.6 1009.3
03 22.04 З 1 20 км 3/0
[Ac trans]
+6.2 -1.9 56 +6 +9 1019.5 1008.3 +1.6
06 22.04 З 3 20 км 9 баллов +11.4 -1.4 41 +10 +11 1020.2 1009.3

 

Местоположение метеостанции Тугулым (Свердловская область, Россия): широта 57.07 долгота 64.67 высота над уровнем моря 90 м.

В архиве по умолчанию представлена погода в Тугулыме за последнюю неделю. Архивные данные за месяц целиком и за предыдущие месяцы, начиная с января 2011 года, Вы можете получить, выбрав интересующий диапазон дат из раскрывающегося списка и нажав кнопку "Ввод!".


*Определитесь, кто Вы:
робот инопланетянин человек

Внимание! Время в таблицах - всемирное. Для получения местного времени необходимо прибавить поправку, которая равна 5 ч.

Смотрите также архив погоды в соседних городах и на ближайших метеорологических станциях:

Погода в Тюмени (Тюменская область, Россия) (46 км)
Погода в Шатрово (Курганская область, Россия) (61 км)
Погода в Бутке (Свердловская область, Россия) (67 км)
Погода в Исетском (Тюменская область, Россия) (78 км)
Погода в Ялуторовске (Тюменская область, Россия) (111 км)
Погода в Нижней Тавде (Тюменская область, Россия) (112 км)
Погода в Тавде (Свердловская область, Россия) (117 км)
Погода в Ирбите (Свердловская область, Россия) (119 км)
Погода в Камышлове (Свердловская область, Россия) (121 км)
Погода в Туринске (Свердловская область, Россия) (124 км)

Пояснения к столбцам:

Ветер - указаны скорость ветра в м/с - средняя за 10 мин, порывы в срок и между сроками (в фигурных скобках) и направление, откуда дует ветер: С - северный, СВ - северо-восточный, В - восточный, ЮВ - юго-восточный, Ю - южный, ЮЗ - юго-западный, З - западный, СЗ - северо-западный.
Видимость - горизонтальная дальность видимости в метрах или километрах. При видимости от 1 до 10 км при отсутствии осадков обычно наблюдается дымка, при ухудшении видимости до 1 км и менее - туман. В сухую погоду видимость может ухудшаться дымом, пылью или мглою.
Явления - указаны атмосферные явления, наблюдавшиеся в срок или в последний час перед сроком; фигурными скобками обозначены явления, наблюдавшиеся между сроками (за 1-3 часа до срока); квадратными скобками обозначены град или гололедные отложения с указанием их диаметра в мм.
Облачность - указаны через наклонную черту общая и нижняя облачность в баллах и высота нижней границы облаков в метрах; квадратными скобками обозначены формы облаков: Ci - перистые, Cs - перисто-слоистые, Cc - перисто-кучевые, Ac - высококучевые, As - высокослоистые, Sc - слоисто-кучевые, Ns - слоисто-дождевые, Cu - кучевые, Cb - кучево-дождевые. Подробнее классификацию облаков см. в Атласе облаков (PDF).
T - Температура воздуха - температура, измеренная на высоте 2 м над землей.
Td - Температура точки росы - температура, при понижении до которой содержащийся в воздухе водяной пар достигнет насыщения.
f - Относительная влажность воздуха - влажноcть воздуха, измеренная на высоте 2 м над землей.
Te - Эффективная температура - температура, которую ощущает одетый по сезону человек в тени. Характеристика душности погоды. При расчете учитывается влияние влажности воздуха и скорости ветра на теплоощущения человека.
Tes - Эффективная температура на солнце - температура, которую ощущает человек, с поправкой на солнечный нагрев. Характеристика знойности погоды. Зависит от высоты солнца над горизонтом, облачности и скорости ветра. Ночью, в пасмурную погоду, а также при ветре 12 м/с и более поправка равна нулю.
P - Атмосферное давление - приведенное к уровню моря атмосферное давление.
Po - Атмосферное давление - измеренное на уровне метеостанции атмосферное давление.
Tmin - Минимальная температура - минимум температуры воздуха на высоте 2 м над землей.
Tmax - Максимальная температура - максимум температуры воздуха на высоте 2 м над землей.
R - Количество осадков - Количество выпавших осадков за период времени, мм. При наведении курсора мыши на число - период времени, за который выпало указанное количество осадков.
R24 - Количество осадков - Количество выпавших осадков за 24 часа, мм.
S - Снежный покров - Высота снежного покрова, см. При наведении курсора мыши на число - состояние снежного покрова и степень покрытия местности в баллах.